QPF
0.00 0.00 0.00 0.00 0.03 0.01 0.00 0.00 0.00 0.01 0.01 0.01 0.00 0.00 0.00 0.00 0.00 0.00 0.00 0.01 0.01 0.01 0.01 0.00 0.00 0.00 0.00 0.00 0.01 0.00 0.00 0.00 0.00 0.00 0.00 0.00 0.00 0.01 0.02 0.00 0.00 0.00 0.00
0.00 0.00 0.00 0.00 0.01 0.01 0.00 0.00 0.00 0.00 0.00 0.00 0.00 0.00 0.00 0.00 0.00 0.00 0.00 0.00 0.00 0.01 0.03 0.02 0.01 0.00 0.00 0.00 0.00 0.00 0.00 0.00 0.00 0.00 0.00 0.00 0.00 0.00 0.00 0.00 0.00 0.00 0.00
0.00 0.00 0.00 0.00 0.00 0.00 0.01 0.00 0.00 0.00 0.00 0.01 0.01 0.00 0.00 0.00 0.00 0.00 0.00 0.00 0.00 0.02 0.07 0.03 0.01 0.00 0.00 0.00 0.00 0.00 0.00 0.00 0.00 0.00 0.00 0.00 0.00 0.00 0.00 0.00 0.00 0.01 0.00
0.00 0.00 0.00 0.01 0.00 0.00 0.01 0.01 0.02 0.01 0.00 0.00 0.00 0.00 0.01 0.01 0.00 0.00 0.00 0.00 0.00 0.01 0.01 0.00 0.00 0.00 0.00 0.00 0.00 0.00 0.00 0.00 0.00 0.00 0.00 0.00 0.00 0.00 0.00 0.00 0.01 0.01 0.00
0.00 0.00 0.00 0.00 0.00 0.00 0.00 0.00 0.02 0.03 0.00 0.00 0.00 0.00 0.02 0.04 0.00 0.00 0.00 0.00 0.00 0.00 0.00 0.00 0.01 0.04 0.00 0.00 0.00 0.00 0.00 0.00 0.00 0.00 0.00 0.00 0.00 0.00 0.01 0.01 0.00 0.00 0.00
0.00 0.00 0.00 0.00 0.00 0.00 0.00 0.00 0.00 0.01 0.00 0.00 0.00 0.01 0.01 0.04 0.01 0.00 0.01 0.02 0.01 0.00 0.00 0.00 0.02 0.05 0.00 0.00 0.00 0.00 0.00 0.00 0.00 0.00 0.00 0.00 0.00 0.00 0.00 0.00 0.00 0.00 0.00
0.00 0.00 0.00 0.00 0.00 0.00 0.00 0.00 0.00 0.00 0.00 0.00 0.01 0.00 0.01 0.03 0.03 0.02 0.02 0.02 0.02 0.02 0.01 0.00 0.02 0.02 0.00 0.00 0.00 0.00 0.01 0.00 0.00 0.00 0.00 0.00 0.00 0.00 0.00 0.00 0.00 0.00 0.00
0.00 0.00 0.00 0.00 0.00 0.00 0.00 0.00 0.00 0.00 0.00 0.00 0.00 0.00 0.00 0.02 0.02 0.01 0.01 0.01 0.01 0.01 0.02 0.01 0.01 0.00 0.00 0.00 0.00 0.00 0.00 0.00 0.00 0.00 0.00 0.00 0.00 0.00 0.00 0.00 0.00 0.00 0.00
0.00 0.00 0.00 0.00 0.00 0.00 0.00 0.00 0.00 0.00 0.00 0.00 0.00 0.00 0.00 0.00 0.01 0.02 0.00 0.01 0.01 0.00 0.01 0.00 0.00 0.00 0.00 0.00 0.00 0.00 0.00 0.00 0.00 0.00 0.00 0.00 0.00 0.00 0.00 0.00 0.00 0.00 0.00
0.00 0.00 0.00 0.00 0.00 0.00 0.00 0.00 0.00 0.00 0.00 0.00 0.00 0.01 0.00 0.00 0.00 0.00 0.00 0.00 0.01 0.00 0.01 0.00 0.00 0.00 0.00 0.00 0.00 0.00 0.00 0.00 0.00 0.00 0.00 0.00 0.00 0.00 0.00 0.00 0.00 0.00 0.00
0.00 0.00 0.00 0.00 0.00 0.00 0.00 0.00 0.00 0.00 0.00 0.00 0.00 0.00 0.00 0.00 0.00 0.00 0.00 0.00 0.00 0.00 0.00 0.00 0.00 0.00 0.00 0.00 0.00 0.00 0.00 0.00 0.00 0.00 0.00 0.00 0.00 0.00 0.00 0.00 0.00 0.00 0.00
0.00 0.00 0.00 0.00 0.00 0.00 0.00 0.00 0.00 0.00 0.00 0.01 0.00 0.00 0.00 0.00 0.00 0.00 0.00 0.00 0.00 0.00 0.00 0.00 0.01 0.00 0.00 0.00 0.00 0.00 0.00 0.00 0.00 0.00 0.00 0.00 0.00 0.00 0.00 0.00 0.00 0.00 0.00
0.00 0.00 0.00 0.00 0.00 0.00 0.00 0.00 0.00 0.00 0.00 0.00 0.00 0.00 0.00 0.00 0.00 0.00 0.00 0.00 0.00 0.00 0.00 0.00 0.00 0.00 0.00 0.00 0.00 0.00 0.00 0.00 0.00 0.00 0.00 0.00 0.00 0.00 0.00 0.00 0.00 0.00 0.00
0.00 0.00 0.00 0.00 0.00 0.00 0.00 0.00 0.00 0.00 0.00 0.00 0.00 0.00 0.00 0.00 0.00 0.00 0.00 0.00 0.00 0.00 0.00 0.00 0.00 0.00 0.00 0.00 0.00 0.00 0.00 0.00 0.00 0.00 0.00 0.00 0.00 0.00 0.00 0.00 0.00 0.00 0.00
0.00 0.00 0.00 0.00 0.00 0.00 0.00 0.00 0.00 0.00 0.00 0.00 0.00 0.00 0.00 0.00 0.00 0.00 0.00 0.00 0.00 0.00 0.00 0.00 0.00 0.00 0.00 0.00 0.00 0.00 0.00 0.00 0.00 0.00 0.00 0.00 0.00 0.00 0.00 0.00 0.00 0.00 0.00
0.00 0.00 0.00 0.00 0.00 0.00 0.00 0.00 0.00 0.00 0.00 0.00 0.00 0.00 0.00 0.00 0.00 0.00 0.00 0.00 0.00 0.00 0.00 0.00 0.00 0.00 0.00 0.00 0.00 0.00 0.00 0.00 0.00 0.00 0.00 0.00 0.00 0.00 0.01 0.01 0.00 0.00 0.00
0.00 0.00 0.00 0.00 0.00 0.00 0.00 0.00 0.00 0.00 0.00 0.00 0.00 0.00 0.00 0.00 0.00 0.00 0.00 0.00 0.00 0.00 0.00 0.00 0.00 0.00 0.00 0.00 0.00 0.00 0.00 0.00 0.00 0.00 0.00 0.00 0.00 0.00 0.01 0.01 0.03 0.03 0.01
0.00 0.00 0.00 0.00 0.00 0.00 0.00 0.00 0.00 0.00 0.00 0.00 0.00 0.00 0.00 0.00 0.00 0.00 0.00 0.00 0.00 0.00 0.00 0.00 0.00 0.00 0.00 0.00 0.00 0.00 0.00 0.00 0.00 0.00 0.00 0.00 0.00 0.00 0.00 0.00 0.03 0.05 0.02
0.00 0.00 0.00 0.00 0.00 0.00 0.00 0.00 0.00 0.00 0.00 0.00 0.00 0.00 0.00 0.00 0.00 0.00 0.00 0.01 0.00 0.00 0.00 0.00 0.00 0.00 0.00 0.00 0.00 0.00 0.00 0.00 0.00 0.00 0.00 0.00 0.00 0.00 0.00 0.00 0.00 0.00 0.00
0.00 0.00 0.00 0.00 0.00 0.00 0.00 0.00 0.00 0.00 0.00 0.00 0.00 0.00 0.00 0.00 0.00 0.00 0.00 0.02 0.00 0.00 0.00 0.06 0.05 0.06 0.02 0.02 0.00 0.00 0.00 0.00 0.00 0.00 0.00 0.00 0.00 0.00 0.00 0.00 0.00 0.00 0.00
0.00 0.00 0.00 0.00 0.00 0.00 0.00 0.00 0.00 0.00 0.00 0.00 0.00 0.00 0.00 0.00 0.00 0.00 0.00 0.00 0.00 0.00 0.02 0.13 0.12 0.03 0.02 0.06 0.02 0.00 0.00 0.00 0.00 0.00 0.00 0.00 0.00 0.00 0.00 0.00 0.00 0.00 0.00
0.00 0.00 0.00 0.00 0.00 0.00 0.00 0.00 0.00 0.00 0.00 0.00 0.00 0.00 0.00 0.00 0.00 0.00 0.00 0.00 0.00 0.00 0.02 0.09 0.04 0.01 0.05 0.10 0.05 0.01 0.00 0.00 0.00 0.00 0.00 0.00 0.00 0.00 0.00 0.00 0.00 0.00 0.00
0.00 0.00 0.00 0.00 0.00 0.00 0.00 0.00 0.00 0.00 0.00 0.00 0.00 0.00 0.00 0.00 0.00 0.00 0.00 0.00 0.00 0.00 0.00 0.00 0.05 0.01 0.03 0.09 0.08 0.03 0.00 0.00 0.00 0.00 0.00 0.00 0.00 0.00 0.00 0.00 0.00 0.00 0.00
0.00 0.00 0.00 0.00 0.00 0.00 0.00 0.00 0.00 0.00 0.00 0.00 0.00 0.00 0.00 0.00 0.00 0.00 0.00 0.00 0.00 0.00 0.00 0.02 0.09 0.06 0.01 0.01 0.03 0.01 0.00 0.00 0.00 0.00 0.00 0.00 0.00 0.00 0.00 0.00 0.00 0.00 0.00
0.00 0.00 0.00 0.00 0.00 0.00 0.00 0.00 0.00 0.00 0.00 0.00 0.00 0.00 0.00 0.00 0.00 0.00 0.00 0.00 0.00 0.00 0.00 0.03 0.07 0.10 0.09 0.01 0.00 0.00 0.02 0.01 0.00 0.00 0.00 0.00 0.00 0.00 0.00 0.00 0.00 0.00 0.00
0.00 0.00 0.00 0.00 0.00 0.00 0.01 0.00 0.01 0.00 0.00 0.00 0.00 0.00 0.00 0.00 0.00 0.00 0.00 0.00 0.00 0.00 0.01 0.16 0.34 0.35 0.29 0.13 0.03 0.00 0.00 0.00 0.00 0.00 0.00 0.00 0.00 0.00 0.00 0.00 0.00 0.00 0.00
MSLP
1010.89 1010.90 1011.21 1011.60 1011.87 1012.07 1012.12 1012.46 1012.71 1012.89 1013.04 1013.37 1013.65 1014.00 1014.32 1014.70 1014.85 1015.18 1015.46 1015.74 1015.98 1016.12 1016.32 1016.50 1016.70 1016.78 1016.90 1017.07 1017.18 1017.19 1017.59 1017.72 1017.87 1018.04 1018.16 1018.30 1018.42 1018.60 1018.80 1018.99 1019.17 1019.20 1019.43
1009.98 1010.69 1011.18 1011.62 1011.86 1012.15 1012.20 1012.55 1012.88 1013.24 1013.45 1013.64 1013.94 1014.25 1014.60 1014.82 1015.16 1015.45 1015.74 1016.03 1016.29 1016.48 1016.64 1016.85 1016.97 1017.12 1017.17 1017.35 1017.43 1017.50 1017.85 1018.05 1018.09 1018.20 1018.34 1018.50 1018.68 1018.93 1019.07 1019.31 1019.44 1019.53 1019.75
1010.21 1010.74 1011.32 1011.52 1011.94 1012.20 1012.65 1012.78 1013.10 1013.38 1013.68 1013.93 1014.09 1014.52 1014.78 1015.00 1015.35 1015.65 1016.00 1016.23 1016.57 1016.74 1016.90 1017.10 1017.30 1017.33 1017.41 1017.57 1017.62 1017.80 1018.12 1018.29 1018.34 1018.41 1018.68 1018.82 1018.96 1019.23 1019.38 1019.66 1019.70 1019.79 1020.00
1010.26 1010.84 1011.29 1011.62 1011.97 1012.26 1012.77 1013.09 1013.37 1013.70 1013.78 1014.09 1014.41 1014.78 1014.97 1015.18 1015.60 1015.74 1016.11 1016.40 1016.73 1016.96 1017.07 1017.29 1017.36 1017.54 1017.61 1017.73 1017.89 1018.13 1018.34 1018.53 1018.53 1018.74 1019.00 1019.07 1019.15 1019.48 1019.73 1019.91 1019.99 1020.05 1020.23
1010.49 1010.84 1011.28 1011.51 1011.99 1012.36 1012.72 1013.14 1013.55 1013.83 1014.01 1014.27 1014.54 1014.92 1015.26 1015.37 1015.75 1016.01 1016.25 1016.57 1016.86 1017.07 1017.17 1017.49 1017.54 1017.71 1017.89 1017.93 1018.11 1018.46 1018.55 1018.73 1018.90 1019.11 1019.22 1019.34 1019.47 1019.67 1019.90 1020.13 1020.31 1020.42 1020.56
1010.62 1010.97 1011.28 1011.54 1011.94 1012.46 1012.88 1013.27 1013.64 1013.78 1014.06 1014.39 1014.77 1015.13 1015.37 1015.65 1015.83 1016.05 1016.39 1016.67 1016.97 1017.05 1017.34 1017.51 1017.77 1018.02 1018.14 1018.30 1018.48 1018.58 1018.80 1018.93 1019.18 1019.32 1019.44 1019.57 1019.75 1019.81 1020.09 1020.31 1020.49 1020.67 1020.81
1010.76 1011.01 1011.37 1011.69 1011.97 1012.44 1012.85 1013.28 1013.58 1013.81 1013.92 1014.29 1014.77 1015.20 1015.50 1015.67 1015.90 1016.22 1016.53 1016.75 1017.05 1017.13 1017.39 1017.62 1017.93 1018.03 1018.31 1018.59 1018.63 1018.80 1018.85 1019.10 1019.41 1019.53 1019.69 1019.88 1020.07 1020.03 1020.22 1020.38 1020.55 1020.84 1021.05
1010.51 1011.13 1011.52 1011.88 1012.15 1012.53 1012.88 1013.24 1013.50 1013.75 1014.13 1014.38 1014.73 1015.16 1015.47 1015.78 1016.03 1016.31 1016.52 1016.75 1017.08 1017.30 1017.47 1017.69 1018.00 1018.11 1018.36 1018.68 1018.85 1018.91 1018.98 1019.11 1019.30 1019.52 1019.80 1020.04 1020.27 1020.24 1020.32 1020.43 1020.61 1020.85 1021.14
1010.65 1011.16 1011.58 1011.97 1012.34 1012.55 1012.88 1013.20 1013.56 1013.83 1014.11 1014.43 1014.88 1015.21 1015.41 1015.79 1016.02 1016.31 1016.60 1016.72 1017.01 1017.24 1017.45 1017.76 1017.98 1018.26 1018.41 1018.65 1018.92 1019.00 1019.09 1019.20 1019.43 1019.55 1019.76 1020.09 1020.36 1020.43 1020.42 1020.56 1020.75 1020.84 1021.13
1011.03 1011.20 1011.61 1012.02 1012.36 1012.67 1012.96 1013.31 1013.67 1013.91 1014.23 1014.60 1014.90 1015.14 1015.41 1015.79 1016.00 1016.31 1016.68 1016.93 1017.03 1017.29 1017.64 1017.83 1018.08 1018.33 1018.56 1018.77 1018.94 1019.07 1019.16 1019.26 1019.47 1019.66 1019.78 1020.04 1020.33 1020.42 1020.51 1020.71 1020.86 1020.96 1021.13
1011.26 1011.35 1011.59 1011.88 1012.35 1012.78 1013.08 1013.38 1013.78 1014.15 1014.37 1014.67 1014.95 1015.24 1015.54 1015.85 1015.98 1016.32 1016.70 1016.99 1017.08 1017.37 1017.66 1017.89 1018.09 1018.36 1018.65 1018.94 1019.09 1019.11 1019.28 1019.46 1019.62 1019.78 1019.90 1020.08 1020.26 1020.36 1020.52 1020.88 1020.99 1021.06 1021.19
1011.09 1011.36 1011.52 1011.95 1012.37 1012.78 1013.01 1013.37 1013.86 1014.17 1014.44 1014.85 1015.09 1015.33 1015.73 1016.01 1016.20 1016.46 1016.77 1016.93 1017.21 1017.37 1017.64 1017.94 1018.14 1018.43 1018.74 1018.99 1019.22 1019.30 1019.44 1019.53 1019.61 1019.80 1020.01 1020.13 1020.22 1020.32 1020.47 1020.79 1021.02 1021.16 1021.29
1010.64 1011.10 1011.38 1011.79 1012.25 1012.77 1013.01 1013.35 1013.75 1014.26 1014.54 1014.83 1015.16 1015.55 1015.90 1016.27 1016.46 1016.66 1017.02 1017.09 1017.35 1017.46 1017.71 1017.88 1018.33 1018.70 1019.05 1019.20 1019.36 1019.56 1019.56 1019.58 1019.58 1019.69 1019.81 1019.93 1020.06 1020.19 1020.35 1020.63 1020.90 1021.11 1021.26
1010.78 1010.88 1011.22 1011.70 1012.12 1012.63 1013.11 1013.50 1013.65 1014.12 1014.60 1014.92 1015.19 1015.55 1015.94 1016.36 1016.55 1016.79 1017.05 1017.39 1017.59 1017.71 1017.94 1018.06 1018.51 1018.84 1019.09 1019.34 1019.48 1019.60 1019.66 1019.62 1019.53 1019.60 1019.67 1019.73 1019.78 1019.88 1020.06 1020.29 1020.60 1020.85 1021.07
1010.00 1010.61 1010.99 1011.48 1011.85 1012.24 1012.97 1013.41 1013.67 1014.01 1014.35 1014.70 1015.11 1015.45 1015.74 1016.21 1016.52 1016.85 1017.18 1017.41 1017.53 1017.70 1018.02 1018.27 1018.51 1018.81 1019.05 1019.31 1019.37 1019.63 1019.60 1019.62 1019.44 1019.50 1019.47 1019.40 1019.45 1019.59 1019.75 1020.05 1020.40 1020.67 1020.86
1009.09 1009.85 1010.65 1011.19 1011.76 1012.17 1012.70 1013.08 1013.55 1013.73 1014.04 1014.44 1014.80 1015.12 1015.57 1016.03 1016.46 1016.70 1017.03 1017.29 1017.60 1017.82 1018.06 1018.27 1018.42 1018.66 1019.01 1019.26 1019.28 1019.50 1019.45 1019.47 1019.32 1019.21 1019.14 1019.21 1019.33 1019.58 1019.62 1019.85 1020.10 1020.37 1020.52
1007.45 1008.85 1009.99 1010.84 1011.55 1012.13 1012.69 1013.03 1013.24 1013.55 1013.90 1014.30 1014.58 1014.93 1015.34 1015.79 1016.20 1016.58 1016.91 1017.23 1017.48 1017.81 1018.05 1018.30 1018.51 1018.80 1019.06 1019.12 1019.30 1019.35 1019.29 1019.24 1019.07 1018.92 1018.86 1018.99 1019.06 1019.29 1019.49 1019.64 1019.77 1019.94 1020.17
1007.96 1008.37 1009.20 1010.07 1010.93 1011.62 1012.20 1012.81 1013.03 1013.44 1013.69 1013.95 1014.35 1014.74 1015.06 1015.44 1015.83 1016.34 1016.72 1017.00 1017.24 1017.59 1017.84 1018.19 1018.57 1018.88 1019.06 1019.12 1019.22 1019.23 1019.06 1019.05 1018.87 1018.70 1018.68 1018.83 1018.84 1018.92 1019.13 1019.25 1019.36 1019.52 1019.72
1008.03 1008.69 1009.13 1009.83 1010.22 1010.81 1011.47 1012.01 1012.54 1013.08 1013.40 1013.58 1013.96 1014.26 1014.65 1015.05 1015.49 1015.95 1016.25 1016.46 1016.81 1017.17 1017.60 1018.05 1018.39 1018.62 1018.86 1018.99 1019.09 1019.07 1019.01 1018.86 1018.69 1018.56 1018.54 1018.62 1018.72 1018.72 1018.73 1018.82 1018.96 1018.99 1019.19
1007.34 1007.98 1008.98 1009.46 1010.08 1010.56 1011.20 1011.76 1012.25 1012.77 1013.16 1013.18 1013.36 1013.69 1014.09 1014.58 1015.00 1015.37 1015.78 1016.02 1016.34 1016.84 1017.31 1017.68 1017.95 1018.20 1018.38 1018.65 1018.83 1018.79 1018.80 1018.59 1018.51 1018.50 1018.50 1018.47 1018.51 1018.61 1018.66 1018.69 1018.63 1018.61 1018.66
1006.61 1007.35 1008.02 1008.87 1009.33 1010.30 1010.81 1011.22 1011.75 1012.05 1012.70 1013.07 1013.00 1013.09 1013.55 1013.94 1014.40 1014.89 1015.25 1015.55 1015.82 1016.39 1016.70 1017.12 1017.61 1017.94 1018.07 1018.31 1018.63 1018.62 1018.39 1018.16 1018.15 1018.07 1018.00 1018.18 1018.23 1018.18 1018.26 1018.33 1018.42 1018.47 1018.36
1005.51 1006.43 1007.11 1007.68 1008.47 1009.18 1009.89 1010.48 1010.89 1011.45 1011.92 1012.22 1012.71 1012.90 1012.90 1013.36 1013.77 1014.14 1014.66 1015.09 1015.58 1016.08 1016.40 1016.84 1017.20 1017.54 1017.59 1017.85 1018.23 1018.61 1018.36 1017.94 1017.47 1017.31 1017.40 1017.60 1017.54 1017.47 1017.59 1017.61 1017.75 1017.84 1017.90
1004.81 1005.00 1005.67 1006.87 1007.74 1008.11 1008.95 1009.66 1010.48 1011.04 1011.72 1012.24 1012.58 1012.96 1012.95 1012.89 1013.29 1013.60 1013.90 1014.28 1014.79 1015.41 1015.82 1016.13 1016.55 1016.74 1017.03 1017.48 1017.42 1017.84 1018.20 1017.79 1017.57 1016.91 1016.80 1016.81 1016.88 1016.99 1016.85 1016.90 1016.94 1017.06 1017.16
1003.83 1004.62 1004.99 1005.49 1006.42 1007.18 1007.87 1008.85 1009.14 1009.61 1010.48 1010.88 1011.24 1011.77 1012.55 1012.82 1012.89 1013.06 1013.37 1013.66 1014.21 1014.65 1015.10 1015.34 1015.69 1016.08 1016.50 1016.83 1017.36 1017.19 1017.07 1017.13 1017.37 1017.23 1016.82 1016.62 1016.67 1016.63 1016.60 1016.57 1016.52 1016.50 1016.52
1004.40 1004.30 1004.78 1005.14 1005.59 1006.04 1006.61 1007.36 1008.16 1008.47 1008.92 1009.55 1010.53 1011.43 1011.88 1012.11 1012.25 1012.52 1012.74 1013.08 1013.60 1014.08 1014.43 1014.72 1015.16 1015.49 1015.71 1016.02 1016.33 1016.67 1017.00 1017.12 1017.17 1017.33 1017.16 1016.75 1016.39 1016.18 1016.18 1016.21 1016.01 1015.99 1015.90
1004.83 1004.59 1004.55 1004.63 1004.82 1005.30 1005.81 1006.22 1006.87 1007.57 1008.24 1008.80 1009.23 1010.21 1010.87 1011.41 1011.61 1011.88 1012.10 1012.46 1012.90 1013.40 1013.72 1014.13 1014.54 1015.16 1015.55 1015.91 1015.86 1015.97 1016.22 1016.54 1016.78 1017.05 1017.14 1016.79 1016.54 1015.93 1015.74 1015.56 1015.53 1015.41 1015.37
Thickness
5760 5762 5758 5753 5752 5752 5753 5752 5752 5754 5758 5757 5757 5758 5759 5757 5759 5758 5759 5759 5758 5759 5759 5759 5759 5761 5762 5762 5762 5765 5760 5761 5761 5762 5762 5762 5762 5758 5755 5753 5751 5751 5748
5771 5763 5759 5753 5752 5750 5752 5750 5751 5750 5753 5755 5755 5756 5756 5756 5756 5757 5757 5757 5756 5757 5758 5758 5759 5760 5763 5761 5763 5764 5761 5761 5763 5763 5763 5763 5761 5758 5756 5753 5752 5750 5748
5771 5764 5759 5756 5752 5750 5748 5749 5749 5749 5751 5753 5755 5755 5756 5756 5756 5757 5756 5757 5755 5757 5758 5757 5758 5760 5762 5761 5763 5763 5762 5762 5763 5763 5762 5763 5761 5758 5756 5753 5752 5751 5749
5771 5766 5762 5758 5754 5751 5746 5746 5748 5748 5752 5752 5752 5752 5755 5757 5755 5756 5757 5757 5755 5756 5759 5757 5759 5759 5761 5762 5763 5762 5762 5761 5762 5763 5762 5762 5761 5758 5755 5753 5752 5752 5749
5771 5768 5765 5761 5755 5751 5746 5746 5747 5748 5751 5752 5753 5754 5755 5758 5756 5755 5756 5756 5756 5756 5758 5757 5759 5759 5760 5762 5763 5761 5762 5761 5761 5762 5762 5762 5760 5758 5755 5753 5751 5751 5750
5773 5769 5765 5764 5759 5755 5753 5751 5749 5749 5752 5754 5754 5754 5755 5757 5756 5756 5756 5755 5755 5758 5757 5758 5758 5758 5759 5761 5761 5762 5761 5762 5761 5762 5762 5761 5760 5758 5756 5753 5751 5750 5749
5771 5768 5764 5762 5762 5759 5756 5754 5753 5754 5756 5756 5756 5756 5756 5758 5757 5757 5756 5756 5756 5758 5758 5759 5758 5760 5760 5759 5761 5761 5762 5761 5762 5762 5762 5760 5758 5758 5756 5754 5752 5751 5749
5775 5766 5763 5761 5761 5760 5759 5757 5757 5757 5757 5757 5757 5757 5758 5758 5758 5757 5757 5757 5758 5758 5759 5759 5759 5761 5760 5759 5760 5761 5762 5762 5763 5763 5761 5759 5757 5757 5757 5755 5753 5752 5750
5776 5768 5764 5761 5759 5760 5760 5759 5758 5758 5759 5760 5759 5759 5761 5759 5760 5759 5758 5758 5759 5760 5760 5760 5760 5761 5761 5761 5760 5762 5762 5762 5763 5763 5762 5759 5756 5755 5756 5756 5754 5754 5751
5776 5769 5766 5762 5760 5759 5760 5759 5758 5759 5759 5759 5759 5760 5760 5760 5761 5760 5758 5758 5760 5761 5760 5760 5760 5761 5761 5761 5761 5761 5762 5763 5764 5763 5761 5760 5756 5754 5755 5755 5754 5754 5752
5775 5769 5768 5766 5763 5760 5760 5760 5759 5758 5758 5759 5759 5759 5759 5759 5761 5759 5759 5758 5761 5761 5761 5760 5760 5761 5760 5760 5760 5761 5762 5761 5761 5761 5760 5759 5757 5755 5754 5754 5754 5754 5753
5779 5775 5773 5770 5766 5763 5761 5761 5760 5759 5759 5757 5758 5758 5758 5758 5759 5759 5757 5759 5759 5760 5760 5760 5761 5760 5758 5759 5759 5759 5761 5761 5760 5760 5760 5758 5758 5757 5755 5754 5754 5753 5753
5788 5783 5779 5775 5770 5766 5764 5764 5762 5760 5760 5759 5758 5757 5756 5756 5756 5757 5756 5757 5757 5758 5759 5760 5758 5759 5757 5757 5758 5758 5760 5761 5760 5760 5761 5760 5759 5759 5757 5755 5754 5753 5753
5789 5789 5786 5781 5776 5771 5766 5763 5763 5761 5759 5758 5757 5756 5755 5754 5755 5755 5755 5754 5755 5756 5757 5758 5756 5755 5756 5755 5756 5757 5758 5760 5761 5761 5762 5762 5762 5762 5760 5758 5756 5755 5754
5797 5792 5790 5786 5782 5777 5771 5766 5765 5763 5760 5758 5756 5755 5755 5754 5753 5753 5752 5752 5754 5755 5756 5756 5755 5755 5755 5754 5755 5755 5756 5758 5760 5761 5763 5764 5764 5764 5763 5760 5758 5756 5755
5806 5800 5794 5790 5785 5779 5774 5770 5766 5764 5762 5760 5757 5756 5754 5753 5752 5752 5751 5751 5751 5752 5753 5755 5755 5755 5755 5755 5755 5755 5756 5757 5760 5762 5764 5765 5764 5763 5763 5761 5759 5758 5757
5823 5811 5800 5794 5789 5783 5776 5771 5768 5765 5761 5760 5758 5757 5754 5752 5751 5750 5749 5749 5749 5750 5750 5751 5752 5752 5752 5753 5753 5755 5755 5757 5760 5763 5765 5765 5765 5764 5763 5762 5761 5760 5758
5818 5816 5809 5802 5795 5789 5782 5776 5771 5766 5764 5761 5756 5753 5753 5752 5751 5749 5748 5748 5748 5748 5748 5747 5748 5748 5749 5751 5752 5753 5755 5756 5760 5762 5764 5764 5764 5765 5764 5763 5763 5762 5760
5815 5809 5808 5804 5801 5796 5790 5784 5777 5771 5767 5765 5760 5758 5755 5752 5751 5750 5750 5750 5749 5748 5747 5746 5746 5746 5746 5748 5750 5752 5753 5755 5757 5759 5760 5761 5761 5762 5763 5763 5763 5764 5762
5818 5813 5806 5804 5801 5798 5793 5787 5783 5776 5770 5769 5767 5763 5759 5754 5754 5754 5752 5753 5752 5750 5748 5747 5745 5746 5747 5746 5747 5749 5751 5753 5755 5757 5757 5757 5759 5759 5760 5761 5762 5763 5763
5817 5816 5812 5807 5805 5798 5793 5789 5785 5782 5776 5772 5771 5769 5764 5762 5759 5756 5754 5753 5752 5749 5749 5748 5745 5743 5744 5745 5742 5745 5749 5753 5755 5757 5758 5757 5758 5759 5760 5760 5760 5760 5762
5821 5817 5815 5813 5809 5804 5799 5794 5792 5788 5783 5780 5775 5772 5771 5767 5764 5761 5758 5756 5753 5750 5749 5746 5744 5741 5743 5743 5739 5737 5737 5747 5756 5759 5759 5759 5760 5762 5762 5761 5761 5761 5761
5823 5824 5822 5813 5807 5808 5802 5797 5792 5789 5782 5777 5774 5770 5770 5771 5768 5765 5763 5761 5758 5754 5751 5749 5746 5744 5742 5741 5744 5737 5729 5737 5743 5758 5761 5762 5762 5762 5764 5763 5763 5763 5763
5827 5823 5821 5819 5812 5808 5805 5797 5796 5793 5786 5785 5782 5778 5771 5768 5768 5767 5766 5763 5759 5756 5753 5751 5750 5746 5743 5739 5738 5742 5745 5744 5738 5740 5753 5757 5759 5759 5761 5761 5762 5763 5763
5814 5818 5818 5816 5814 5812 5809 5804 5798 5796 5796 5792 5785 5775 5772 5772 5770 5769 5767 5765 5762 5757 5753 5750 5748 5747 5746 5743 5742 5739 5738 5739 5741 5738 5736 5745 5753 5758 5759 5759 5761 5761 5761
5800 5805 5809 5811 5813 5812 5810 5810 5804 5798 5793 5790 5790 5781 5776 5773 5773 5772 5771 5768 5764 5759 5756 5752 5748 5744 5741 5739 5741 5741 5740 5738 5736 5734 5732 5736 5742 5751 5756 5758 5758 5759 5758